Weather History for Erie, CO

Change the Weather History Date:

Saturday, January 18, 2014

  Actual Average (KBJC) Record (KBJC)
Temperature  
Mean Temperature 38 °F -  
Max Temperature 57 °F 44 °F 62 °F (1999)
Min Temperature 19 °F 25 °F 2 °F (1985)
Degree Days  
Heating Degree Days 27    
Moisture  
Dew Point 14 °F    
Average Humidity 48    
Maximum Humidity 86    
Minimum Humidity 14    
Precipitation  
Precipitation 0.00 in - - ()
Sea Level Pressure  
Sea Level Pressure 30.14 in    
Wind  
Wind Speed 3 mph (SSE)    
Max Wind Speed 9 mph    
Max Gust Speed -    
Visibility 10 miles    
Events      
Averages and records for this station are not official NWS values.
T = Trace of Precipitation, MM = Missing Value Source: NWS Daily Summary

Daily Weather History Graph

Daily Weather History Graph

Search for Another Location

Airport:

Trip Planner

Search our weather history database for the weather conditions in past years. The results will help you decide how hot, cold, wet, or windy it might be!

Date:

Astronomy

Jan. 18, 2014 Rise Set
Actual Time 7:18 AM MST 5:02 PM MST
Civil Twilight 6:49 AM MST 5:32 PM MST
Nautical Twilight 6:16 AM MST 6:05 PM MST
Astronomical Twilight 5:43 AM MST 6:38 PM MST
Moon 7:47 PM MST 8:19 AM MST
Length of Visible Light 10h 43m
Length of Day
9h 44m
Waning Gibbous, 94% of the Moon is Illuminated
Jan 18
Waning Gibbous
Jan 23
Last Quarter
Jan 30
New
Feb 6
First Quarter
Feb 14
Full

Hourly Weather History & Observations

Time (MST) Temp. Windchill Dew Point Humidity Pressure Visibility Wind Dir Wind Speed Gust Speed Precip Events Conditions
12:14 AM 24.6 °F - 16.0 °F 70% 30.09 in 10.0 mi Calm Calm - N/A   Clear
12:34 AM 24.3 °F - 16.0 °F 71% 30.09 in 10.0 mi Calm Calm - N/A   Clear
12:54 AM 23.5 °F 19.1 °F 16.0 °F 73% 30.10 in 10.0 mi SSW 3.5 mph - N/A   Clear
1:14 AM 24.1 °F - 15.4 °F 70% 30.10 in 10.0 mi Calm Calm - N/A   Clear
1:34 AM 24.4 °F - 16.3 °F 71% 30.10 in 10.0 mi Calm Calm - N/A   Clear
1:54 AM 24.8 °F 20.5 °F 15.8 °F 69% 30.10 in 10.0 mi South 3.5 mph - N/A   Clear
2:14 AM 24.6 °F 20.3 °F 15.8 °F 69% 30.10 in 10.0 mi SSW 3.5 mph - N/A   Clear
2:34 AM 23.7 °F - 16.5 °F 74% 30.10 in 10.0 mi Calm Calm - N/A   Clear
2:54 AM 25.2 °F - 15.8 °F 68% 30.10 in 10.0 mi Calm Calm - N/A   Clear
3:14 AM 24.4 °F - 17.6 °F 75% 30.10 in 10.0 mi Calm Calm - N/A   Clear
3:34 AM 23.7 °F - 16.9 °F 75% 30.09 in 10.0 mi Calm Calm - N/A   Clear
3:54 AM 25.0 °F 20.7 °F 16.7 °F 71% 30.08 in 10.0 mi SSE 3.5 mph - N/A   Clear
4:14 AM 26.6 °F - 16.3 °F 65% 30.09 in 10.0 mi Calm Calm - N/A   Clear
4:34 AM 22.6 °F - 14.9 °F 72% 30.09 in 10.0 mi Calm Calm - N/A   Clear
4:54 AM 21.0 °F - 14.9 °F 77% 30.10 in 10.0 mi Calm Calm - N/A   Clear
5:14 AM 21.6 °F 16.8 °F 15.8 °F 78% 30.10 in 10.0 mi SSW 3.5 mph - N/A   Clear
5:34 AM 20.7 °F - 17.1 °F 86% 30.10 in 10.0 mi Calm Calm - N/A   Clear
5:54 AM 21.6 °F - 17.2 °F 83% 30.11 in 10.0 mi Calm Calm - N/A   Clear
6:14 AM 19.8 °F - 14.9 °F 81% 30.12 in 10.0 mi Calm Calm - N/A   Clear
6:34 AM 20.7 °F - 15.4 °F 80% 30.13 in 10.0 mi Calm Calm - N/A   Clear
6:54 AM 19.9 °F - 14.9 °F 81% 30.13 in 10.0 mi Calm Calm - N/A   Clear
7:14 AM 19.9 °F 13.4 °F 15.8 °F 84% 30.13 in 10.0 mi SSW 4.6 mph - N/A   Clear
7:34 AM 19.9 °F 12.1 °F 15.6 °F 83% 30.13 in 10.0 mi SSW 5.8 mph - N/A   Clear
7:54 AM 24.1 °F 19.7 °F 17.2 °F 75% 30.14 in 10.0 mi SSE 3.5 mph - N/A   Clear
8:14 AM 27.3 °F 22.0 °F 17.6 °F 67% 30.15 in 10.0 mi SW 4.6 mph - N/A   Clear
8:34 AM 30.0 °F - 19.6 °F 65% 30.15 in 10.0 mi Calm Calm - N/A   Clear
8:54 AM 34.0 °F - 20.7 °F 58% 30.15 in 10.0 mi Calm Calm - N/A   Clear
9:14 AM 39.9 °F - 19.2 °F 43% 30.16 in 10.0 mi Calm Calm - N/A   Clear
9:34 AM 45.0 °F - 16.2 °F 32% 30.16 in 10.0 mi Calm Calm - N/A   Clear
9:54 AM 48.2 °F - 13.6 °F 25% 30.17 in 10.0 mi Calm Calm - N/A   Clear
10:14 AM 50.9 °F - 10.6 °F 20% 30.18 in 10.0 mi Calm Calm - N/A   Clear
10:34 AM 51.6 °F - 11.8 °F 20% 30.18 in 10.0 mi ENE 3.5 mph - N/A   Clear
10:54 AM 54.1 °F - 13.5 °F 20% 30.18 in 10.0 mi East 4.6 mph - N/A   Clear
11:14 AM 54.3 °F - 11.8 °F 18% 30.18 in 10.0 mi East 6.9 mph - N/A   Clear
11:34 AM 54.5 °F - 10.0 °F 17% 30.17 in 10.0 mi East 8.1 mph - N/A   Clear
11:54 AM 54.9 °F - 8.1 °F 15% 30.17 in 10.0 mi East 9.2 mph - N/A   Clear
12:14 PM 54.5 °F - 10.4 °F 17% 30.16 in 10.0 mi East 6.9 mph - N/A   Clear
12:34 PM 54.7 °F - 9.7 °F 17% 30.15 in 10.0 mi ESE 9.2 mph - N/A   Clear
12:54 PM 55.6 °F - 10.8 °F 17% 30.15 in 10.0 mi East 6.9 mph - N/A   Clear
1:14 PM 55.8 °F - 10.9 °F 17% 30.15 in 10.0 mi East 6.9 mph - N/A   Clear
1:34 PM 56.5 °F - 10.4 °F 16% 30.14 in 10.0 mi East 8.1 mph - N/A   Clear
1:54 PM 57.2 °F - 9.0 °F 15% 30.15 in 10.0 mi ESE 6.9 mph - N/A   Clear
2:14 PM 57.2 °F - 9.3 °F 15% 30.15 in 10.0 mi ESE 6.9 mph - N/A   Clear
2:34 PM 57.7 °F - 7.5 °F 14% 30.15 in 10.0 mi SE 5.8 mph - N/A   Clear
2:54 PM 57.4 °F - 8.4 °F 14% 30.15 in 10.0 mi ESE 6.9 mph - N/A   Clear
3:14 PM 57.2 °F - 7.5 °F 14% 30.17 in 10.0 mi ESE 4.6 mph - N/A   Clear
3:34 PM 56.8 °F - 7.9 °F 14% 30.17 in 10.0 mi SE 4.6 mph - N/A   Clear
3:54 PM 55.4 °F - 7.9 °F 15% 30.17 in 10.0 mi South 4.6 mph - N/A   Clear
4:14 PM 54.1 °F - 8.6 °F 16% 30.17 in 10.0 mi SSE 5.8 mph - N/A   Clear
4:34 PM 52.0 °F - 9.9 °F 18% 30.17 in 10.0 mi South 5.8 mph - N/A   Clear
4:54 PM 49.5 °F - 10.6 °F 21% 30.17 in 10.0 mi SSE 6.9 mph - N/A   Clear
5:14 PM 44.4 °F 40.0 °F 11.3 °F 26% 30.18 in 10.0 mi SSE 8.1 mph - N/A   Clear
5:34 PM 43.3 °F 38.1 °F 11.7 °F 28% 30.18 in 10.0 mi SSE 9.2 mph - N/A   Clear
5:54 PM 41.9 °F 37.5 °F 13.1 °F 31% 30.18 in 10.0 mi SSE 6.9 mph - N/A   Clear
6:14 PM 42.6 °F 37.8 °F 13.8 °F 31% 30.18 in 10.0 mi South 8.1 mph - N/A   Clear
6:34 PM 37.6 °F 33.1 °F 14.9 °F 40% 30.17 in 10.0 mi SSW 5.8 mph - N/A   Clear
6:54 PM 35.8 °F 30.9 °F 15.3 °F 43% 30.16 in 10.0 mi SSW 5.8 mph - N/A   Clear
7:14 PM 37.2 °F 32.6 °F 14.9 °F 40% 30.15 in 10.0 mi SW 5.8 mph - N/A   Clear
7:34 PM 34.7 °F 30.6 °F 15.4 °F 45% 30.15 in 10.0 mi SSW 4.6 mph - N/A   Clear
7:54 PM 35.1 °F 27.9 °F 14.5 °F 43% 30.14 in 10.0 mi South 9.2 mph - N/A   Clear
8:14 PM 35.6 °F 31.7 °F 14.9 °F 43% 30.13 in 10.0 mi SSW 4.6 mph - N/A   Clear
8:34 PM 34.3 °F - 14.4 °F 44% 30.13 in 10.0 mi Calm Calm - N/A   Clear
8:54 PM 33.8 °F - 14.4 °F 45% 30.13 in 10.0 mi Calm Calm - N/A   Clear
9:14 PM 30.9 °F 26.2 °F 14.9 °F 52% 30.12 in 10.0 mi SSW 4.6 mph - N/A   Clear
9:34 PM 30.4 °F - 14.5 °F 52% 30.12 in 10.0 mi Calm Calm - N/A   Clear
9:54 PM 30.2 °F - 14.4 °F 52% 30.12 in 10.0 mi Calm Calm - N/A   Clear
10:14 PM 27.9 °F 24.0 °F 15.3 °F 59% 30.12 in 10.0 mi SSW 3.5 mph - N/A   Clear
10:34 PM 26.1 °F 20.5 °F 15.3 °F 64% 30.11 in 10.0 mi South 4.6 mph - N/A   Clear
10:54 PM 24.6 °F 20.3 °F 16.2 °F 70% 30.10 in 10.0 mi SSW 3.5 mph - N/A   Clear
11:14 PM 24.6 °F - 14.4 °F 65% 30.10 in 10.0 mi Calm Calm - N/A   Clear
11:34 PM 25.7 °F - 15.1 °F 64% 30.09 in 10.0 mi Calm Calm - N/A   Clear
11:54 PM 24.6 °F 20.3 °F 15.8 °F 69% 30.09 in 10.0 mi South 3.5 mph - N/A   Clear